GORIZONT 17 [-]

Last updated on Dec. 4, 2020, 6:15 a.m. UTC

1 19765U 89004A   20338.23382809 -.00000098  00000-0  00000-0 0  9998
2 19765  14.4548 348.4833 0020402 110.5161  72.4958  0.99067737115541
UTC
Height (km)
Latitude
Longitude
Inclination
Orbital Period
UTC large
Height (km)
Speed (km/s)
/
Latitude / Longitude
Inclination (degrees)
Orbital Period (minutes)
Azimuth
Elevation
Range (km)
Doppler Factor
iOS Compass Heading
iOS Angle

Next 30 passes for location: Hong Kong

Rise time Rise Azimuth (degrees) Set time Set Azimuth (degrees) Duration Max altitude (degrees)

No matching passes for this satellites